Regional Weather Roundup
Issued by NWS

Home | Current Version | Previous Version | Graphics & Text | Print | Product List | Glossary On
Versions: 1 2 3 4 5 6 7 8 9 10 11 12 13 14 15 16 17 18 19 20 21 22 23 24 25 26 27 28 29 30 31 32 33 34 35 36 37 38 39 40 41 42 43 44 45 46 47 48 49 50
439
ASUS45 KCYS 232310
RWRWY

WYOMING REGIONAL WEATHER ROUNDUP
NATIONAL WEATHER SERVICE CHEYENNE WY
400 PM MST FRI FEB 23 2018

NOTE:  "FAIR" INDICATES FEW OR NO CLOUDS BELOW 12,000 FEET
WITH NO SIGNIFICANT WEATHER AND/OR OBSTRUCTIONS TO VISIBILITY.

WYZ001-240000-
YELLOWSTONE NATIONAL PARK

CITY           SKY/WX    TMP DP  RH WIND       PRES   REMARKS
LK YELLOWSTONE   N/A     16   2  54 W8G16     29.85F WCI   5
W YELLOWSTONE  NOT AVBL

$$
WYZ002>013-054>058-071-098>099-240000-
NORTHERN WYOMING

CITY           SKY/WX    TMP DP  RH WIND       PRES   REMARKS
JACKSON        FAIR      22   9  57 S5        29.92R WCI  16
CODY           FAIR      18   9  68 NE5       29.91F WCI  11
GREYBULL       FAIR      15   4  61 E3        29.99F
WORLAND        FAIR      17   5  59 E3        29.97F
SHERIDAN       FAIR      12   4  70 S5        29.96F WCI   4
BUFFALO        FAIR      21   7  54 CALM      29.91S
GILLETTE       FAIR      22  11  62 S22       29.95S WCI   6
HULETT         FAIR      27   5  39 MISG      29.97F
NEWCASTLE      FAIR      18   3  53 S8        30.04S WCI   7

$$
WYZ014>020-022>026-101>103-240000-
CENTRAL WYOMING

CITY           SKY/WX    TMP DP  RH WIND       PRES   REMARKS
BIG PINEY      FAIR      25   7  46 N10       29.87R WCI  15
PINEDALE       FAIR      21   5  49 NW10      29.87S WCI  10
DUBOIS           N/A    N/A N/A N/A MISG        N/A
LANDER         FAIR      18   8  65 CALM      29.90F
RIVERTON       FAIR      15   2  56 E3        29.92F
CASPER         CLOUDY    17   8  67 CALM      29.93S
DOUGLAS        FAIR      16   9  74 VRB5      29.95F WCI   9

$$
WYZ021-027>030-104>119-240000-
SOUTHERN WYOMING

CITY           SKY/WX    TMP DP  RH WIND       PRES   REMARKS
EVANSTON       LGT SNOW  15  11  83 SW6       29.91R FOG     WCI   6
ROCK SPRINGS   SNOW      16  12  84 W15       29.86S VSB 1/2 WCI   1
DIXON          FAIR      31  14  50 S10G18    29.85S WCI  22
RAWLINS        CLOUDY    21  17  84 NE6       29.85S FOG     WCI  13
SARATOGA       LGT SNOW  25  19  80 N5        29.84S WCI  19
LARAMIE        PTSUNNY   24  15  68 SE20      29.81F WCI  10
CHEYENNE       CLOUDY    23  18  81 S9        29.92S HAZE    WCI  13
TORRINGTON     FAIR      29  14  53 SE16      30.00S WCI  17
PINE BLUFFS    FAIR      30  19  64 MISG      29.97S

$$




USA.gov is the U.S. government's official web portal to all federal, state and local government web resources and services.